Flag for Angola Weather past 2 weeks in Cabinda, Angola

Now
84 °F

Thunderstorms. Broken clouds.


Feels Like: 92 °F
Forecast: 78 / 88 °F
Wind: 3 mph from Northwest

Location: Pointe Airport-Noire

Current Time: Feb 27, 2015 at 4:50:59 PM

Latest Report: Feb 27, 2015 at 4:00 PM


Visibility: 4 mi

Pressure: 29.80 "Hg

Humidity: 74%

Dew point: 75 °F

Location of CabindaLocation

Historic Weather in Cabinda — Graph

°F

Cabinda temperature yesterday

Maximum temperature yesterday: 82 °F (at 3:00 PM)
Minimum temperature yesterday: 75 °F (at 8:00 AM)
Average temperature yesterday: 78 °F

Past Weeks' High & Low Weather Summary

 TemperatureHumidityPressure
High90 °F (Feb 16, 11:00 AM)100% (Feb 20, 4:00 AM)29.95 "Hg (Feb 20, 4:00 AM)
Low75 °F (Feb 13, 2:00 AM)59% (Feb 15, 2:00 PM)29.68 "Hg (Feb 20, 6:00 PM)
Average81 °F85%29.83 "Hg
* Reported Feb 12 3:00 PM — Feb 27 3:00 PM, Cabinda, Weather by CustomWeather, © 2015

Note: Actual official high and low records may vary slightly from our data, if they occured in-between our weather recording intervals... More about our weather records

Advertising

Cabinda weather history for previous 24 hours

 ConditionsComfort  
Time TempWeatherWind HumidityBarometerVisibility
3:00 PM
Fri, Feb 27
84 °FThunderstorms. Broken clouds.6 mph74%29.80 "Hg5 mi
2:00 PM86 °FPartly sunny.9 mph75%29.83 "HgN/A
1:00 PM88 °FScattered clouds.3 mph70%29.86 "HgN/A
12:00 PM86 °FScattered clouds.2 mph70%29.86 "HgN/A
11:00 AM84 °FScattered clouds.6 mph74%29.89 "HgN/A
10:00 AM81 °FPassing clouds.7 mph84%29.89 "HgN/A
9:00 AM79 °FPassing clouds.9 mph84%29.89 "HgN/A
8:00 AM77 °FPassing clouds.5 mph89%29.86 "HgN/A
7:00 AM75 °FPassing clouds.6 mph94%29.83 "HgN/A
6:00 AM75 °FPassing clouds.5 mph94%29.83 "Hg5 mi
5:00 AM75 °FPassing clouds.5 mph94%29.83 "Hg5 mi
4:00 AM75 °FPassing clouds.5 mph94%29.80 "Hg5 mi
3:00 AM77 °FPassing clouds.2 mph94%29.80 "Hg5 mi
2:00 AM77 °FPassing clouds.2 mph94%29.83 "Hg5 mi
1:00 AM77 °FLight rain. Partly cloudy.3 mph94%29.86 "Hg5 mi
12:00 AM77 °FLight rain. Partly cloudy.3 mph89%29.86 "Hg5 mi
11:00 PM
Thu, Feb 26
77 °FPartly cloudy.5 mph94%29.89 "Hg5 mi
10:00 PM77 °FPartly cloudy.5 mph94%29.86 "Hg5 mi
9:00 PM79 °FPartly cloudy.3 mph89%29.83 "Hg5 mi
8:00 PM79 °FLight rain. Partly cloudy.3 mph94%29.83 "Hg5 mi
7:00 PM81 °FPartly cloudy.2 mph89%29.77 "HgN/A
6:00 PM81 °FPassing clouds.5 mph84%29.74 "HgN/A
5:00 PM81 °FPassing clouds.9 mph84%29.71 "HgN/A
4:00 PM82 °FScattered clouds.13 mph79%29.74 "HgN/A
Weather by CustomWeather, © 2015

See weather overviewHow to use our weather pages